CZ-6A DEB, 61085

Orbit data source: Space-Track

CZ-6A DEB, 61085 is space debris in LEO originally from a launch on Tue, 06 Aug 2024 UTC launched from the Taiyaun Space Center, China (TSC). Debris objects in space refer to the collection of defunct objects orbiting the Earth. Examples of debris include non-operational satellites, rocket bodies, and fragments generated from explosions, collisions, or faulty payload assembly.

Loading next visibility...
Identifier
61085, 2024-140NB
Orbit
LEO
Country
Flag of CNCN / PRC
Related business
Manufacturer
SAST
Mission
Spacecraft
Bus & Motor
Unknown
Mass
Unknown
Launch date (UTC)
2024-08-06 (2 years ago)
Launch vehicle
Unknown
Launch site
Taiyaun Space Center, China (TSC)
Object type
Payload
Rocket body
Debris
Shape & HBR
Unknown shape, 0.1 m
Radar Cross Section
Medium (>0.1 m² and <1 m²)

Expand to show TLE details & history
Last TLE update: 13 hours ago

TLE from 13 hours ago
0 CZ-6A DEB
1 61085U 24140NB  26171.31449491  .00000410  00000-0  18876-3 0  9991
2 61085  89.1407 285.6545 0050665 176.2720 183.8857 14.18685604 93941
Epoch: 2026-06-20T07:32Z
TLE epoch observation values (Epoch: 2026-06-20T07:32:52.360Z)
Latitude
-0.00005°
Longitude
-96.09456°
Altitude
869.297 km
Speed
7.399 km/s
True Right ascension
19h 02m 37s
True Declination
0° 00' 00"
Sunlit
Object was in full shadow at epoch
Visualization orbit readout
Latitude
Unknown
Longitude
Unknown
Altitude
Unknown
Speed
Unknown
Apparent Right ascension
Unknown
Apparent Declination
Unknown
Sunlit
N/A
Visualization observer readout
Local Sidereal Time
07:23:48
Azimuth
Unknown
Elevation
Unknown
Doppler factor
Unknown
Orbital elements
Apogee altitude
863.257 km
Perigee altitude
790.25 km
Semi-major axis
7,204.891 km
Eccentricity
0.00507
Inclination
89.1407°
RAAN
285.6545°
Arg. of periapsis
176.272°
True anomaly
183.8466°
Mean anomaly
183.8857°
Eccentric anomaly
183.86613°
Mean motion
3.54897 °/min
Orbital period
101.44 mins
BSTAR
0.00018876
Loading maneuver chart data...
Computing Atmospheric mass density...
Loading historical data...
Loading historical data...
Loading historical data...
Loading historical data...
Loading historical data...
Loading historical data...
Loading historical data...

Documentation

Showing up to 5 results
|